Pierre, SD

6:05 AM CST on November 22, 2019 (GMT -0600)
Pierre Regional

Weather History for KPIR - June, 2019

Change the Weather History Date:

Monday, June 3, 2019

  Actual Average Record
Temperature  
Mean Temperature 70 °F 63 °F  
Max Temperature 85 °F 75 °F 98 °F (1968)
Min Temperature 55 °F 52 °F 34 °F (1998)
Degree Days  
Heating Degree Days 0    
Month to date heating degree days 12  
Since 1 June heating degree days 12  
Since 1 July heating degree days 8138  
Cooling Degree Days 5    
Month to date cooling degree days 5  
Year to date cooling degree days 16  
Since 1 June cooling degree days 5  
Growing Degree Days 20 (Base 50)    
Moisture  
Dew Point 60 °F    
Average Humidity 69    
Maximum Humidity 93    
Minimum Humidity 44    
Precipitation  
Precipitation 0.00 in 0.13 in 2.60 in (1991)
Month to date precipitation T 0.39  
Year to date precipitation 13.85 7.59  
Snow  
Snow 0.00 in 0.00 in T in (1998)
Month to date snowfall 0.0 0.0  
Since 1 July snowfall 66.3 31.9  
Snow Depth 0.00 in    
Sea Level Pressure  
Sea Level Pressure 29.77 in    
Wind  
Wind Speed 10 mph (SSE)    
Max Wind Speed 20 mph    
Max Gust Speed 26 mph    
Visibility 10 miles    
Events      
T = Trace of Precipitation, MM = Missing Value Source: NWS Daily Summary

Daily Weather History Graph

Daily Weather History Graph

Search for Another Location

Airport or City:

Astronomy

Jun. 03, 2019 Rise Set
Actual Time 5:59 AM CDT 9:19 PM CDT
Civil Twilight 5:23 AM CDT 9:55 PM CDT
Nautical Twilight 4:36 AM CDT 10:42 PM CDT
Astronomical Twilight 3:38 AM CDT 11:41 PM CDT
Moon 6:23 AM CDT (6/3) 9:45 PM CDT (6/3)
Length of Visible Light 16h 32m
Length of Day
15h 20m
New Moon, 0% of the Moon is Illuminated
Jun 3
New Moon
Jun 10
First Quarter
Jun 17
Full
Jun 25
Last Quarter
Jul 2
New

Hourly Weather History & Observations

Time (CDT) Temp. Heat Index Dew Point Humidity Pressure Visibility Wind Dir Wind Speed Gust Speed Precip Events Conditions
12:53 AM 62.1 °F - 54.0 °F 75% 29.84 in 10.0 mi SE 11.5 mph - N/A   Clear
1:53 AM 57.9 °F - 54.0 °F 87% 29.82 in 10.0 mi SE 5.8 mph - N/A   Clear
2:53 AM 59.0 °F - 55.0 °F 87% 29.82 in 10.0 mi SSE 8.1 mph - N/A   Clear
3:53 AM 55.9 °F - 54.0 °F 93% 29.82 in 10.0 mi SE 6.9 mph - N/A   Clear
4:53 AM 55.9 °F - 54.0 °F 93% 29.83 in 10.0 mi Calm Calm - N/A   Clear
5:53 AM 55.9 °F - 54.0 °F 93% 29.83 in 10.0 mi SSE 5.8 mph - N/A   Clear
6:53 AM 57.0 °F - 54.0 °F 89% 29.83 in 10.0 mi Calm Calm - N/A   Clear
7:53 AM 62.1 °F - 57.0 °F 84% 29.83 in 10.0 mi ESE 5.8 mph - N/A   Clear
8:53 AM 66.0 °F - 59.0 °F 78% 29.83 in 10.0 mi SE 11.5 mph - N/A   Clear
9:53 AM 70.0 °F - 61.0 °F 73% 29.82 in 10.0 mi SSE 17.3 mph - N/A   Clear
10:53 AM 73.9 °F - 61.0 °F 64% 29.81 in 10.0 mi SSE 13.8 mph 24.2 mph N/A   Clear
11:53 AM 77.0 °F - 61.0 °F 58% 29.79 in 10.0 mi SSE 16.1 mph - N/A   Clear
12:53 PM 79.0 °F - 63.0 °F 58% 29.77 in 10.0 mi SSE 16.1 mph 24.2 mph N/A   Clear
1:53 PM 81.0 °F 81.9 °F 62.1 °F 52% 29.75 in 10.0 mi SSE 13.8 mph - N/A   Clear
2:53 PM 82.9 °F 84.0 °F 63.0 °F 51% 29.74 in 10.0 mi South 16.1 mph - N/A   Clear
3:53 PM 84.0 °F 84.0 °F 60.1 °F 44% 29.73 in 10.0 mi South 16.1 mph - N/A   Clear
4:53 PM 84.0 °F 84.5 °F 62.1 °F 47% 29.72 in 10.0 mi South 13.8 mph 23.0 mph N/A   Clear
5:53 PM 84.0 °F 84.4 °F 61.0 °F 46% 29.70 in 10.0 mi South 15.0 mph - N/A   Clear
6:53 PM 82.9 °F 84.0 °F 63.0 °F 51% 29.68 in 10.0 mi SSE 12.7 mph - N/A   Clear
7:53 PM 77.0 °F - 64.9 °F 66% 29.68 in 10.0 mi SSE 8.1 mph - N/A   Clear
8:53 PM 75.0 °F - 64.9 °F 71% 29.68 in 10.0 mi SE 10.4 mph - N/A   Clear
9:53 PM 73.0 °F - 63.0 °F 71% 29.69 in 10.0 mi SE 10.4 mph - N/A   Clear
10:53 PM 71.1 °F - 64.0 °F 78% 29.69 in 10.0 mi SE 10.4 mph - N/A   Clear
11:53 PM 69.1 °F - 64.9 °F 87% 29.68 in 10.0 mi ESE 8.1 mph - N/A   Clear